METEOSAT-8 (MSG1) 1 27509C 02040B 22178.00000000 .00000236 00000+0 00000+0 0 1787 2 27509 8.0551 50.6136 0001180 5.1413 260.7148 1.00275427 16 METEOSAT-9 (MSG2) 1 28912C 05049B 22178.00000000 .00000223 00000+0 00000+0 0 1784 2 28912 6.0412 66.2561 0001555 350.3694 264.1087 1.00269594 14 METEOSAT-10 (MSG3) 1 38552C 12035B 22178.00000000 .00000153 00000+0 00000+0 0 1780 2 38552 1.5358 41.7897 0000304 106.0127 136.4847 1.00273757 13 METEOSAT-11 (MSG4) 1 40732C 15034A 22178.00000000 .00000088 00000+0 00000+0 0 1782 2 40732 0.3077 58.3175 0001492 66.6691 150.2604 1.00278855 19